This is the latest recevied weather packets stored in our database for station/object WC4PEM-10. If no packets are shown the sender has not sent any weather packets the latest 1 day(s).
| Time | Temp. | Humidity | Pressure | Rain* | Wind** | Luminosity | Snow |
|---|---|---|---|---|---|---|---|
| 1777996694 | 27.22° C | 58% | 1015.9 hPa | 0 mm | 3.58 m/s, 124° | - | - |
| 1777996588 | 27.22° C | 58% | 1015.9 hPa | 0 mm | 3.58 m/s, 124° | - | - |
| 1777996419 | 27.22° C | 60% | 1016 hPa | 0 mm | 3.13 m/s, 74° | - | - |
| 1777996359 | 27.22° C | 60% | 1016 hPa | 0 mm | 3.13 m/s, 74° | - | - |
| 1777996288 | 27.22° C | 60% | 1016 hPa | 0 mm | 3.13 m/s, 74° | - | - |
| 1777996043 | 27.22° C | 60% | 1016 hPa | 0 mm | 3.58 m/s, 109° | - | - |
| 1777995988 | 27.22° C | 60% | 1016 hPa | 0 mm | 3.58 m/s, 109° | - | - |
| 1777995688 | 27.22° C | 59% | 1016 hPa | 0 mm | 4.47 m/s, 88° | - | - |
| 1777995497 | 27.22° C | 60% | 1016 hPa | 0 mm | 4.92 m/s, 0° | - | - |
| 1777995388 | 27.22° C | 60% | 1016 hPa | 0 mm | 4.92 m/s, 0° | - | - |
| 1777995182 | 27.22° C | 62% | 1015.8 hPa | 0 mm | 5.36 m/s, 116° | - | - |
| 1777995088 | 27.22° C | 62% | 1015.8 hPa | 0 mm | 5.36 m/s, 116° | - | - |
| 1777994893 | 26.67° C | 63% | 1015.9 hPa | 0 mm | 4.92 m/s, 111° | - | - |
| 1777994788 | 26.67° C | 63% | 1015.9 hPa | 0 mm | 4.92 m/s, 111° | - | - |
| 1777994636 | 26.67° C | 65% | 1015.9 hPa | 0 mm | 4.92 m/s, 107° | - | - |
| 1777994488 | 26.67° C | 65% | 1015.9 hPa | 0 mm | 4.92 m/s, 107° | - | - |
| 1777994270 | 26.67° C | 65% | 1015.9 hPa | 0 mm | 5.36 m/s, 134° | - | - |
| 1777994188 | 26.67° C | 65% | 1015.9 hPa | 0 mm | 5.36 m/s, 134° | - | - |
| 1777993888 | 26.67° C | 66% | 1015.9 hPa | 0 mm | 4.47 m/s, 117° | - | - |
| 1777993692 | 26.67° C | 66% | 1016 hPa | 0 mm | 4.47 m/s, 134° | - | - |
| 1777993588 | 26.67° C | 66% | 1016 hPa | 0 mm | 4.47 m/s, 134° | - | - |
| 1777993506 | 26.11° C | 67% | 1016 hPa | 0 mm | 4.02 m/s, 79° | - | - |
| 1777993288 | 26.11° C | 67% | 1016 hPa | 0 mm | 4.02 m/s, 79° | - | - |
| 1777993095 | 26.11° C | 67% | 1015.8 hPa | 0 mm | 4.02 m/s, 120° | - | - |
| 1777992988 | 26.11° C | 67% | 1015.8 hPa | 0 mm | 4.02 m/s, 120° | - | - |
* Rain latest hour (hover to see other rain measurements)
** Current wind speed in m/s (hover to see current wind gust speed)